Regional Weather Roundup
Issued by NWS

Home | Current Version | Previous Version | Graphics & Text | Print | Product List | Glossary On
Versions: 1 2 3 4 5 6 7 8 9 10 11 12 13 14 15 16 17 18 19 20 21 22 23 24 25 26 27 28
000
ASUS45 KBOI 242010
RWRID

IDAHO REGIONAL WEATHER ROUNDUP
NATIONAL WEATHER SERVICE BOISE ID
100 PM MST FRI NOV 24 2017

NOTE: "FAIR" INDICATES FEW OR NO CLOUDS BELOW 12000 FEET
WITH NO SIGNIFICANT WEATHER AND/OR OBSTRUCTIONS TO VISIBILITY

IDZ012-014-242100-
SOUTHWEST IDAHO


CITY           SKY/WX    TMP DP  RH WIND       PRES   REMARKS
BOISE          SUNNY     52  34  50 W7        30.12S
CALDWELL       SUNNY     52  33  48 W9        30.13F
MOUNTAIN HOME  SUNNY     52  37  56 NW10      30.11F
$$

IDZ016-017-242100-
SOUTHCENTRAL IDAHO


CITY           SKY/WX    TMP DP  RH WIND       PRES   REMARKS
BURLEY         CLOUDY    50  41  71 W17G29    30.07F
JEROME         PTSUNNY   50  41  71 W18G24    30.11R
TWIN FALLS     CLOUDY    50  40  68 W16       30.11R
$$

IDZ019>023-242100-
SOUTHEAST IDAHO


CITY           SKY/WX    TMP DP  RH WIND       PRES   REMARKS
IDAHO FALLS    CLOUDY    47  44  90 S16       30.04S
POCATELLO      CLOUDY    47  44  90 SW18      30.07F
REXBURG        PTSUNNY   48  41  76 SW15G22   30.02S
$$

IDZ006-010-011-018-031-032-242100-
CENTRAL IDAHO MOUNTAINS


CITY           SKY/WX    TMP DP  RH WIND       PRES   REMARKS
MCCALL         SUNNY     44  26  49 W7        30.05S
HAILEY         MOSUNNY   52  25  35 NW9       30.05S
STANLEY          N/A     42  20  41 N5        30.06S
SALMON         MOSUNNY   49  27  42 N3        30.03S
CHALLIS        SUNNY     52  20  28 W7        30.01S
$$

IDZ002-004-006-007-026-242100-
NORTHERN IDAHO


CITY           SKY/WX    TMP DP  RH WIND       PRES   REMARKS
LEWISTON       SUNNY     52  39  61 CALM      30.11F
LOWELL           N/A     46  42  86 SE3       30.13F
COEUR D`ALENE  CLOUDY    44  34  67 S8        30.07S
MULLAN PASS    LGT SNOW  27  24  89 VRB7      30.00R VSB 1   WCI  19
$$




USA.gov is the U.S. government's official web portal to all federal, state and local government web resources and services.